Time,TemperatureF,DewpointF,PressureIn,WindDirection,WindDirectionDegrees,WindSpeedMPH,WindSpeedGustMPH,Humidity,HourlyPrecipIn,Conditions,Clouds,dailyrainin,SoftwareType,DateUTC
2013-08-27 00:01:00,74.1,63.7,29.44,WSW,248,1.6,1.6,70,0.00,,,0.00,VWS V14.01,2013-08-27 04:01:00,
2013-08-27 00:02:00,74.3,63.9,29.44,WNW,292,2.7,2.7,70,0.00,,,0.00,VWS V14.01,2013-08-27 04:02:00,
2013-08-27 00:03:00,74.3,63.9,29.44,WSW,248,0.0,0.0,70,0.00,,,0.00,VWS V14.01,2013-08-27 04:03:00,
2013-08-27 00:08:00,74.3,63.9,29.44,WNW,292,3.4,3.4,70,0.00,,,0.00,VWS V14.01,2013-08-27 04:08:00,
2013-08-27 00:13:00,74.3,63.9,29.41,WSW,248,3.4,3.4,70,0.00,,,0.00,VWS V14.01,2013-08-27 04:13:00,
2013-08-27 00:18:00,74.1,63.7,29.41,WSW,248,5.6,5.6,70,0.00,,,0.00,VWS V14.01,2013-08-27 04:18:00,
2013-08-27 00:23:00,74.3,63.9,29.41,WSW,248,4.0,4.0,70,0.00,,,0.00,VWS V14.01,2013-08-27 04:23:00,
2013-08-27 00:28:00,74.3,63.9,29.44,West,270,3.6,3.6,70,0.00,,,0.00,VWS V14.01,2013-08-27 04:28:00,
2013-08-27 00:34:00,74.3,63.9,29.44,West,270,0.9,0.9,70,0.00,,,0.00,VWS V14.01,2013-08-27 04:34:00,
2013-08-27 00:39:00,74.3,63.9,29.44,WNW,292,4.7,4.7,70,0.00,,,0.00,VWS V14.01,2013-08-27 04:39:00,
2013-08-27 00:44:00,74.1,63.7,29.44,WSW,248,4.0,4.0,70,0.00,,,0.00,VWS V14.01,2013-08-27 04:44:00,
2013-08-27 00:49:00,74.1,63.7,29.44,West,270,6.3,6.3,70,0.00,,,0.00,VWS V14.01,2013-08-27 04:49:00,
2013-08-27 00:54:00,74.1,63.7,29.44,West,270,5.6,5.6,70,0.00,,,0.00,VWS V14.01,2013-08-27 04:54:00,
2013-08-27 00:59:00,74.1,63.7,29.44,NNW,338,2.7,2.7,70,0.00,,,0.00,VWS V14.01,2013-08-27 04:59:00,
2013-08-27 01:04:00,73.9,63.5,29.44,West,270,3.6,3.6,70,0.00,,,0.00,VWS V14.01,2013-08-27 05:04:00,
2013-08-27 01:09:00,73.9,63.5,29.44,West,270,7.2,7.2,70,0.00,,,0.00,VWS V14.01,2013-08-27 05:09:00,
2013-08-27 01:14:00,73.8,63.4,29.44,WSW,248,5.4,5.4,70,0.00,,,0.00,VWS V14.01,2013-08-27 05:14:00,
2013-08-27 01:19:00,73.8,63.4,29.44,WNW,292,5.8,5.8,70,0.00,,,0.00,VWS V14.01,2013-08-27 05:19:00,
2013-08-27 01:24:00,73.8,63.8,29.44,West,270,5.4,5.4,71,0.00,,,0.00,VWS V14.01,2013-08-27 05:24:00,
2013-08-27 01:29:00,73.8,63.4,29.44,West,270,6.5,6.5,70,0.00,,,0.00,VWS V14.01,2013-08-27 05:29:00,
2013-08-27 01:34:00,73.8,63.8,29.44,WNW,292,5.8,5.8,71,0.00,,,0.00,VWS V14.01,2013-08-27 05:34:00,
2013-08-27 01:40:00,73.8,63.4,29.44,West,270,2.7,2.7,70,0.00,,,0.00,VWS V14.01,2013-08-27 05:40:00,
2013-08-27 01:45:00,73.8,63.4,29.44,WNW,292,6.0,6.0,70,0.00,,,0.00,VWS V14.01,2013-08-27 05:45:00,
2013-08-27 01:50:00,73.8,63.4,29.44,WSW,248,3.4,3.4,70,0.00,,,0.00,VWS V14.01,2013-08-27 05:50:00,
2013-08-27 01:55:00,73.8,63.4,29.44,WNW,292,6.3,6.3,70,0.00,,,0.00,VWS V14.01,2013-08-27 05:55:00,
2013-08-27 02:00:00,73.8,63.4,29.44,WNW,292,4.9,4.9,70,0.00,,,0.00,VWS V14.01,2013-08-27 06:00:00,
2013-08-27 02:05:00,73.8,63.0,29.44,NNW,338,2.9,2.9,69,0.00,,,0.00,VWS V14.01,2013-08-27 06:05:00,
2013-08-27 02:10:00,73.8,63.0,29.44,WNW,292,3.1,3.1,69,0.00,,,0.00,VWS V14.01,2013-08-27 06:10:00,
2013-08-27 02:15:00,73.8,63.0,29.44,WNW,292,4.0,4.0,69,0.00,,,0.00,VWS V14.01,2013-08-27 06:15:00,
2013-08-27 02:20:00,73.8,63.0,29.44,WNW,292,4.7,4.7,69,0.00,,,0.00,VWS V14.01,2013-08-27 06:20:00,
2013-08-27 02:25:00,73.6,62.8,29.44,West,270,1.6,1.6,69,0.00,,,0.00,VWS V14.01,2013-08-27 06:25:00,
2013-08-27 02:30:00,73.4,62.6,29.44,NW,315,3.6,3.6,69,0.00,,,0.00,VWS V14.01,2013-08-27 06:30:00,
2013-08-27 02:35:00,73.4,62.6,29.44,WNW,292,3.4,3.4,69,0.00,,,0.00,VWS V14.01,2013-08-27 06:35:00,
2013-08-27 02:40:00,73.4,62.6,29.44,West,270,2.9,2.9,69,0.00,,,0.00,VWS V14.01,2013-08-27 06:40:00,
2013-08-27 02:45:00,73.4,62.6,29.47,WNW,292,5.4,5.4,69,0.00,,,0.00,VWS V14.01,2013-08-27 06:45:00,
2013-08-27 02:50:00,73.4,62.6,29.47,WNW,292,3.1,3.1,69,0.00,,,0.00,VWS V14.01,2013-08-27 06:50:00,
2013-08-27 02:55:00,73.4,62.6,29.47,WNW,292,3.1,3.1,69,0.00,,,0.00,VWS V14.01,2013-08-27 06:55:00,
2013-08-27 03:00:00,73.4,62.6,29.44,NW,315,2.7,2.7,69,0.00,,,0.00,VWS V14.01,2013-08-27 07:00:00,
2013-08-27 03:05:00,73.6,62.8,29.44,NW,315,4.3,4.3,69,0.00,,,0.00,VWS V14.01,2013-08-27 07:05:00,
2013-08-27 03:10:00,73.8,63.0,29.44,NNW,338,3.1,3.1,69,0.00,,,0.00,VWS V14.01,2013-08-27 07:10:00,
2013-08-27 03:15:00,73.8,63.0,29.44,NW,315,2.5,2.5,69,0.00,,,0.00,VWS V14.01,2013-08-27 07:15:00,
2013-08-27 03:20:00,73.8,63.0,29.44,NW,315,2.2,2.2,69,0.00,,,0.00,VWS V14.01,2013-08-27 07:20:00,
2013-08-27 03:25:00,73.8,63.0,29.44,NW,315,2.0,2.0,69,0.00,,,0.00,VWS V14.01,2013-08-27 07:25:00,
2013-08-27 03:30:00,73.8,63.0,29.44,WNW,292,2.7,2.7,69,0.00,,,0.00,VWS V14.01,2013-08-27 07:30:00,
2013-08-27 03:36:00,73.8,63.0,29.44,WNW,292,3.4,3.4,69,0.00,,,0.00,VWS V14.01,2013-08-27 07:36:00,
2013-08-27 03:41:00,73.6,62.8,29.44,NW,315,2.9,2.9,69,0.00,,,0.00,VWS V14.01,2013-08-27 07:41:00,
2013-08-27 03:46:00,73.6,62.8,29.44,WNW,292,3.6,3.6,69,0.00,,,0.00,VWS V14.01,2013-08-27 07:46:00,
2013-08-27 03:51:00,73.6,62.8,29.44,WNW,292,3.1,3.1,69,0.00,,,0.00,VWS V14.01,2013-08-27 07:51:00,
2013-08-27 03:56:00,73.4,63.0,29.44,West,270,6.0,6.0,70,0.00,,,0.00,VWS V14.01,2013-08-27 07:56:00,
2013-08-27 04:01:00,73.4,63.0,29.44,WNW,292,2.9,2.9,70,0.00,,,0.00,VWS V14.01,2013-08-27 08:01:00,
2013-08-27 04:06:00,73.2,62.9,29.44,WNW,292,3.6,3.6,70,0.00,,,0.00,VWS V14.01,2013-08-27 08:06:00,
2013-08-27 04:11:00,73.2,63.3,29.44,WNW,292,4.0,4.0,71,0.00,,,0.00,VWS V14.01,2013-08-27 08:11:00,
2013-08-27 04:16:00,73.0,63.1,29.44,WSW,248,5.6,5.6,71,0.00,,,0.00,VWS V14.01,2013-08-27 08:16:00,
2013-08-27 04:21:00,72.9,62.9,29.44,West,270,5.8,5.8,71,0.00,,,0.00,VWS V14.01,2013-08-27 08:21:00,
2013-08-27 04:26:00,72.9,62.9,29.44,WSW,248,3.6,3.6,71,0.00,,,0.00,VWS V14.01,2013-08-27 08:26:00,
2013-08-27 04:31:00,72.7,62.7,29.41,WNW,292,3.8,3.8,71,0.00,,,0.00,VWS V14.01,2013-08-27 08:31:00,
2013-08-27 04:36:00,72.7,63.1,29.41,West,270,2.5,2.5,72,0.00,,,0.00,VWS V14.01,2013-08-27 08:36:00,
2013-08-27 04:42:00,72.5,63.0,29.41,WNW,292,3.6,3.6,72,0.00,,,0.00,VWS V14.01,2013-08-27 08:42:00,
2013-08-27 04:47:00,72.3,62.8,29.44,WNW,292,4.3,4.3,72,0.00,,,0.00,VWS V14.01,2013-08-27 08:47:00,
2013-08-27 04:52:00,72.1,63.0,29.44,West,270,5.8,5.8,73,0.00,,,0.00,VWS V14.01,2013-08-27 08:52:00,
2013-08-27 04:57:00,72.1,63.0,29.44,WNW,292,3.8,3.8,73,0.00,,,0.00,VWS V14.01,2013-08-27 08:57:00,
2013-08-27 05:02:00,72.0,62.8,29.44,WNW,292,3.8,3.8,73,0.00,,,0.00,VWS V14.01,2013-08-27 09:02:00,
2013-08-27 05:07:00,72.0,63.2,29.44,WNW,292,5.4,5.4,74,0.00,,,0.00,VWS V14.01,2013-08-27 09:07:00,
2013-08-27 05:12:00,72.0,63.2,29.44,WNW,292,3.4,3.4,74,0.00,,,0.00,VWS V14.01,2013-08-27 09:12:00,
2013-08-27 05:17:00,71.8,63.4,29.44,WNW,292,5.4,5.4,75,0.00,,,0.00,VWS V14.01,2013-08-27 09:17:00,
2013-08-27 05:22:00,71.8,63.4,29.44,West,270,5.4,5.4,75,0.00,,,0.00,VWS V14.01,2013-08-27 09:22:00,
2013-08-27 05:27:00,71.6,63.3,29.44,WNW,292,3.4,3.4,75,0.00,,,0.00,VWS V14.01,2013-08-27 09:27:00,
2013-08-27 05:32:00,71.6,63.3,29.44,WNW,292,4.7,4.7,75,0.00,,,0.00,VWS V14.01,2013-08-27 09:32:00,
2013-08-27 05:37:00,71.8,63.8,29.44,WNW,292,3.1,3.1,76,0.00,,,0.00,VWS V14.01,2013-08-27 09:37:00,
2013-08-27 05:42:00,71.8,63.8,29.44,NW,315,2.5,2.5,76,0.00,,,0.00,VWS V14.01,2013-08-27 09:42:00,
2013-08-27 05:48:00,71.8,63.8,29.44,NNW,338,2.5,2.5,76,0.00,,,0.00,VWS V14.01,2013-08-27 09:48:00,
2013-08-27 05:53:00,71.8,63.8,29.44,NNW,338,2.5,2.5,76,0.00,,,0.00,VWS V14.01,2013-08-27 09:53:00,
2013-08-27 05:58:00,71.8,63.8,29.44,West,270,2.7,2.7,76,0.00,,,0.00,VWS V14.01,2013-08-27 09:58:00,
2013-08-27 06:03:00,71.8,63.8,29.44,West,270,4.3,4.3,76,0.00,,,0.00,VWS V14.01,2013-08-27 10:03:00,
2013-08-27 06:08:00,71.6,63.6,29.44,SSE,158,0.0,0.0,76,0.00,,,0.00,VWS V14.01,2013-08-27 10:08:00,
2013-08-27 06:13:00,71.2,63.7,29.44,SE,135,2.5,2.5,77,0.00,,,0.00,VWS V14.01,2013-08-27 10:13:00,
2013-08-27 06:18:00,70.7,63.1,29.44,SE,135,2.0,2.0,77,0.00,,,0.00,VWS V14.01,2013-08-27 10:18:00,
2013-08-27 06:23:00,70.5,63.0,29.44,SSW,202,2.5,2.5,77,0.00,,,0.00,VWS V14.01,2013-08-27 10:23:00,
2013-08-27 06:28:00,70.2,63.0,29.44,SW,225,1.6,1.6,78,0.00,,,0.00,VWS V14.01,2013-08-27 10:28:00,
2013-08-27 06:33:00,70.2,63.0,29.44,SSW,202,0.0,0.0,78,0.00,,,0.00,VWS V14.01,2013-08-27 10:33:00,
2013-08-27 06:38:00,70.2,63.3,29.44,WSW,248,0.0,0.0,79,0.00,,,0.00,VWS V14.01,2013-08-27 10:38:00,
2013-08-27 06:43:00,70.0,63.2,29.44,SW,225,0.0,0.0,79,0.00,,,0.00,VWS V14.01,2013-08-27 10:43:00,
2013-08-27 06:49:00,70.0,63.2,29.44,WNW,292,0.0,0.0,79,0.00,,,0.00,VWS V14.01,2013-08-27 10:49:00,
2013-08-27 06:54:00,70.2,63.7,29.44,WNW,292,0.0,0.0,80,0.00,,,0.00,VWS V14.01,2013-08-27 10:54:00,
2013-08-27 06:59:00,70.2,63.7,29.44,WSW,248,1.6,1.6,80,0.00,,,0.00,VWS V14.01,2013-08-27 10:59:00,
2013-08-27 07:04:00,70.2,63.7,29.44,West,270,2.9,2.9,80,0.00,,,0.00,VWS V14.01,2013-08-27 11:04:00,
2013-08-27 07:09:00,70.3,63.9,29.44,West,270,2.7,2.7,80,0.00,,,0.00,VWS V14.01,2013-08-27 11:09:00,
2013-08-27 07:14:00,70.5,64.1,29.44,West,270,2.0,2.0,80,0.00,,,0.00,VWS V14.01,2013-08-27 11:14:00,
2013-08-27 07:19:00,70.5,64.1,29.44,West,270,2.7,2.7,80,0.00,,,0.00,VWS V14.01,2013-08-27 11:19:00,
2013-08-27 07:24:00,70.7,64.2,29.44,NW,315,2.5,2.5,80,0.00,,,0.00,VWS V14.01,2013-08-27 11:24:00,
2013-08-27 07:29:00,70.9,64.8,29.44,WSW,248,4.0,4.0,81,0.00,,,0.00,VWS V14.01,2013-08-27 11:29:00,
2013-08-27 07:34:00,70.9,64.4,29.44,NW,315,0.0,0.0,80,0.00,,,0.00,VWS V14.01,2013-08-27 11:34:00,
2013-08-27 07:39:00,71.1,64.6,29.44,North,0,0.0,0.0,80,0.00,,,0.00,VWS V14.01,2013-08-27 11:39:00,
2013-08-27 07:44:00,71.2,64.8,29.44,WSW,248,2.5,2.5,80,0.00,,,0.00,VWS V14.01,2013-08-27 11:44:00,
2013-08-27 07:49:00,71.4,65.3,29.44,WNW,292,1.6,1.6,81,0.00,,,0.00,VWS V14.01,2013-08-27 11:49:00,
2013-08-27 07:54:00,71.6,65.1,29.44,WSW,248,1.3,1.3,80,0.00,,,0.00,VWS V14.01,2013-08-27 11:54:00,
2013-08-27 08:00:00,71.8,65.3,29.44,SSW,202,1.1,1.1,80,0.00,,,0.00,VWS V14.01,2013-08-27 12:00:00,
2013-08-27 08:05:00,71.8,65.3,29.44,WNW,292,0.0,0.0,80,0.00,,,0.00,VWS V14.01,2013-08-27 12:05:00,
2013-08-27 08:10:00,72.0,65.5,29.44,WSW,248,0.0,0.0,80,0.00,,,0.00,VWS V14.01,2013-08-27 12:10:00,
2013-08-27 08:15:00,72.0,65.5,29.44,WSW,248,2.5,2.5,80,0.00,,,0.00,VWS V14.01,2013-08-27 12:15:00,
2013-08-27 08:20:00,72.1,65.6,29.44,NNW,338,0.0,0.0,80,0.00,,,0.00,VWS V14.01,2013-08-27 12:20:00,
2013-08-27 08:25:00,72.5,66.0,29.44,West,270,2.9,2.9,80,0.00,,,0.00,VWS V14.01,2013-08-27 12:25:00,
2013-08-27 08:30:00,72.9,66.3,29.44,WNW,292,4.0,4.0,80,0.00,,,0.00,VWS V14.01,2013-08-27 12:30:00,
2013-08-27 08:35:00,73.0,66.5,29.44,NNW,338,4.9,4.9,80,0.00,,,0.00,VWS V14.01,2013-08-27 12:35:00,
2013-08-27 08:40:00,73.2,66.3,29.44,West,270,4.7,4.7,79,0.00,,,0.00,VWS V14.01,2013-08-27 12:40:00,
2013-08-27 08:45:00,73.4,66.1,29.41,NW,315,4.0,4.0,78,0.00,,,0.00,VWS V14.01,2013-08-27 12:45:00,
2013-08-27 08:50:00,73.6,66.3,29.41,North,0,4.3,4.3,78,0.00,,,0.00,VWS V14.01,2013-08-27 12:50:00,
2013-08-27 08:55:00,73.8,66.1,29.41,NNW,338,3.8,3.8,77,0.00,,,0.00,VWS V14.01,2013-08-27 12:55:00,
2013-08-27 09:00:00,73.9,66.3,29.44,NW,315,2.5,2.5,77,0.00,,,0.00,VWS V14.01,2013-08-27 13:00:00,
2013-08-27 09:05:00,73.9,66.3,29.44,WNW,292,2.2,2.2,77,0.00,,,0.00,VWS V14.01,2013-08-27 13:05:00,
2013-08-27 09:10:00,74.1,66.5,29.44,West,270,1.1,1.1,77,0.00,,,0.00,VWS V14.01,2013-08-27 13:10:00,
2013-08-27 09:16:00,74.3,66.6,29.41,NNW,338,2.9,2.9,77,0.00,,,0.00,VWS V14.01,2013-08-27 13:16:00,
2013-08-27 09:21:00,74.3,66.2,29.41,NNW,338,0.0,0.0,76,0.00,,,0.00,VWS V14.01,2013-08-27 13:21:00,
2013-08-27 09:26:00,74.3,66.2,29.41,North,0,3.6,3.6,76,0.00,,,0.00,VWS V14.01,2013-08-27 13:26:00,
2013-08-27 09:31:00,74.7,67.0,29.44,NNE,22,4.3,4.3,77,0.00,,,0.00,VWS V14.01,2013-08-27 13:31:00,
2013-08-27 09:36:00,74.8,67.2,29.44,NNE,22,6.5,6.5,77,0.00,,,0.00,VWS V14.01,2013-08-27 13:36:00,
2013-08-27 09:41:00,75.2,67.1,29.44,NNE,22,4.9,4.9,76,0.00,,,0.00,VWS V14.01,2013-08-27 13:41:00,
2013-08-27 09:46:00,75.2,67.1,29.44,NE,45,6.3,6.3,76,0.00,,,0.00,VWS V14.01,2013-08-27 13:46:00,
2013-08-27 09:51:00,75.2,66.7,29.44,NNE,22,4.3,4.3,75,0.00,,,0.00,VWS V14.01,2013-08-27 13:51:00,
2013-08-27 09:56:00,75.6,67.1,29.44,NNE,22,7.6,7.6,75,0.00,,,0.00,VWS V14.01,2013-08-27 13:56:00,
2013-08-27 10:01:00,75.7,66.9,29.44,NNE,22,7.6,7.6,74,0.00,,,0.00,VWS V14.01,2013-08-27 14:01:00,
2013-08-27 10:06:00,75.9,67.0,29.44,NE,45,8.7,8.7,74,0.00,,,0.00,VWS V14.01,2013-08-27 14:06:00,
2013-08-27 10:11:00,76.1,66.8,29.44,NNE,22,6.5,6.5,73,0.00,,,0.00,VWS V14.01,2013-08-27 14:11:00,
2013-08-27 10:16:00,76.1,66.8,29.44,NNE,22,6.5,6.5,73,0.00,,,0.00,VWS V14.01,2013-08-27 14:16:00,
2013-08-27 10:21:00,75.9,66.2,29.44,NNE,22,7.8,7.8,72,0.00,,,0.00,VWS V14.01,2013-08-27 14:21:00,
2013-08-27 10:26:00,76.1,66.8,29.44,NE,45,6.5,6.5,73,0.00,,,0.00,VWS V14.01,2013-08-27 14:26:00,
2013-08-27 10:31:00,76.5,67.2,29.44,NE,45,3.6,3.6,73,0.00,,,0.00,VWS V14.01,2013-08-27 14:31:00,
2013-08-27 10:36:00,76.8,67.5,29.44,NE,45,9.0,9.0,73,0.00,,,0.00,VWS V14.01,2013-08-27 14:36:00,
2013-08-27 10:41:00,77.2,67.1,29.44,NNE,22,8.1,8.1,71,0.00,,,0.00,VWS V14.01,2013-08-27 14:41:00,
2013-08-27 10:46:00,77.4,67.2,29.44,ENE,68,9.8,9.8,71,0.00,,,0.00,VWS V14.01,2013-08-27 14:46:00,
2013-08-27 10:51:00,77.4,67.2,29.44,NNE,22,10.1,10.1,71,0.00,,,0.00,VWS V14.01,2013-08-27 14:51:00,
2013-08-27 10:56:00,77.2,66.2,29.44,NNE,22,7.6,7.6,69,0.00,,,0.00,VWS V14.01,2013-08-27 14:56:00,
2013-08-27 11:01:00,77.2,66.2,29.44,NNE,22,10.1,10.1,69,0.00,,,0.00,VWS V14.01,2013-08-27 15:01:00,
2013-08-27 11:06:00,77.2,66.2,29.44,NNW,338,7.4,7.4,69,0.00,,,0.00,VWS V14.01,2013-08-27 15:06:00,
2013-08-27 11:11:00,77.2,66.2,29.44,North,0,8.1,8.1,69,0.00,,,0.00,VWS V14.01,2013-08-27 15:11:00,
2013-08-27 11:16:00,77.2,65.8,29.44,NNE,22,9.0,9.0,68,0.00,,,0.00,VWS V14.01,2013-08-27 15:16:00,
2013-08-27 11:21:00,77.0,65.6,29.44,North,0,7.4,7.4,68,0.00,,,0.00,VWS V14.01,2013-08-27 15:21:00,
2013-08-27 11:26:00,76.8,65.5,29.44,NE,45,3.4,3.4,68,0.00,,,0.00,VWS V14.01,2013-08-27 15:26:00,
2013-08-27 11:31:00,76.6,65.3,29.44,NNE,22,3.4,3.4,68,0.00,,,0.00,VWS V14.01,2013-08-27 15:31:00,
2013-08-27 11:36:00,76.6,64.9,29.44,NNW,338,2.9,2.9,67,0.00,,,0.00,VWS V14.01,2013-08-27 15:36:00,
2013-08-27 11:41:00,77.0,65.6,29.44,WNW,292,2.0,2.0,68,0.00,,,0.00,VWS V14.01,2013-08-27 15:41:00,
2013-08-27 11:46:00,77.2,65.8,29.44,ENE,68,1.1,1.1,68,0.00,,,0.00,VWS V14.01,2013-08-27 15:46:00,
2013-08-27 11:51:00,77.4,66.0,29.44,NNW,338,5.4,5.4,68,0.00,,,0.00,VWS V14.01,2013-08-27 15:51:00,
2013-08-27 11:56:00,77.5,65.7,29.44,WNW,292,2.5,2.5,67,0.00,,,0.00,VWS V14.01,2013-08-27 15:56:00,
2013-08-27 12:01:00,77.7,66.3,29.44,NNE,22,4.0,4.0,68,0.00,,,0.00,VWS V14.01,2013-08-27 16:01:00,
2013-08-27 12:06:00,77.9,65.6,29.44,NNE,22,4.0,4.0,66,0.00,,,0.00,VWS V14.01,2013-08-27 16:06:00,
2013-08-27 12:11:00,78.3,66.4,29.44,North,0,5.6,5.6,67,0.00,,,0.00,VWS V14.01,2013-08-27 16:11:00,
2013-08-27 12:16:00,78.8,66.5,29.44,ENE,68,3.4,3.4,66,0.00,,,0.00,VWS V14.01,2013-08-27 16:16:00,
2013-08-27 12:21:00,79.2,66.4,29.44,NNW,338,6.0,6.0,65,0.00,,,0.00,VWS V14.01,2013-08-27 16:21:00,
2013-08-27 12:26:00,79.3,66.6,29.44,NNE,22,3.1,3.1,65,0.00,,,0.00,VWS V14.01,2013-08-27 16:26:00,
2013-08-27 12:31:00,79.3,66.6,29.44,NNW,338,4.9,4.9,65,0.00,,,0.00,VWS V14.01,2013-08-27 16:31:00,
2013-08-27 12:36:00,79.3,65.2,29.44,NNW,338,3.8,3.8,62,0.00,,,0.00,VWS V14.01,2013-08-27 16:36:00,
2013-08-27 12:41:00,79.5,66.3,29.44,NE,45,7.8,7.8,64,0.00,,,0.00,VWS V14.01,2013-08-27 16:41:00,
2013-08-27 12:46:00,79.7,65.5,29.44,NW,315,3.8,3.8,62,0.00,,,0.00,VWS V14.01,2013-08-27 16:46:00,
2013-08-27 12:51:00,79.7,65.5,29.44,NNE,22,4.0,4.0,62,0.00,,,0.00,VWS V14.01,2013-08-27 16:51:00,
2013-08-27 12:56:00,79.9,65.7,29.44,NNE,22,4.3,4.3,62,0.00,,,0.00,VWS V14.01,2013-08-27 16:56:00,
2013-08-27 13:02:00,80.1,65.9,29.44,NE,45,4.0,4.0,62,0.00,,,0.00,VWS V14.01,2013-08-27 17:02:00,
2013-08-27 13:07:00,80.4,66.2,29.44,NNE,22,7.8,7.8,62,0.00,,,0.00,VWS V14.01,2013-08-27 17:07:00,
2013-08-27 13:12:00,80.8,66.1,29.44,NE,45,7.2,7.2,61,0.00,,,0.00,VWS V14.01,2013-08-27 17:12:00,
2013-08-27 13:17:00,80.8,65.1,29.44,North,0,3.4,3.4,59,0.00,,,0.00,VWS V14.01,2013-08-27 17:17:00,
2013-08-27 13:22:00,81.1,65.5,29.44,NW,315,2.9,2.9,59,0.00,,,0.00,VWS V14.01,2013-08-27 17:22:00,
2013-08-27 13:27:00,81.5,64.8,29.44,WNW,292,2.9,2.9,57,0.00,,,0.00,VWS V14.01,2013-08-27 17:27:00,
2013-08-27 13:32:00,81.9,66.1,29.47,NNE,22,8.1,8.1,59,0.00,,,0.00,VWS V14.01,2013-08-27 17:32:00,
2013-08-27 13:37:00,82.0,65.8,29.47,NE,45,10.3,10.3,58,0.00,,,0.00,VWS V14.01,2013-08-27 17:37:00,
2013-08-27 13:42:00,82.4,65.7,29.47,NNE,22,8.7,8.7,57,0.00,,,0.00,VWS V14.01,2013-08-27 17:42:00,
2013-08-27 13:47:00,82.4,65.7,29.44,ENE,68,6.0,6.0,57,0.00,,,0.00,VWS V14.01,2013-08-27 17:47:00,
2013-08-27 13:52:00,82.6,65.8,29.44,North,0,6.3,6.3,57,0.00,,,0.00,VWS V14.01,2013-08-27 17:52:00,
2013-08-27 13:57:00,82.2,64.5,29.44,North,0,3.1,3.1,55,0.00,,,0.00,VWS V14.01,2013-08-27 17:57:00,
2013-08-27 14:02:00,82.6,66.3,29.44,ENE,68,8.5,8.5,58,0.00,,,0.00,VWS V14.01,2013-08-27 18:02:00,
2013-08-27 14:07:00,83.1,66.8,29.44,NE,45,10.3,10.3,58,0.00,,,0.00,VWS V14.01,2013-08-27 18:07:00,
2013-08-27 14:12:00,83.5,65.6,29.41,North,0,5.8,5.8,55,0.00,,,0.00,VWS V14.01,2013-08-27 18:12:00,
2013-08-27 14:18:00,83.5,65.6,29.41,NNE,22,7.4,7.4,55,0.00,,,0.00,VWS V14.01,2013-08-27 18:18:00,
2013-08-27 14:23:00,83.3,65.5,29.41,NE,45,3.6,3.6,55,0.00,,,0.00,VWS V14.01,2013-08-27 18:23:00,
2013-08-27 14:28:00,83.3,64.4,29.41,NE,45,6.0,6.0,53,0.00,,,0.00,VWS V14.01,2013-08-27 18:28:00,
2013-08-27 14:33:00,83.3,64.9,29.41,North,0,4.3,4.3,54,0.00,,,0.00,VWS V14.01,2013-08-27 18:33:00,
2013-08-27 14:38:00,83.3,64.4,29.41,NNE,22,4.5,4.5,53,0.00,,,0.00,VWS V14.01,2013-08-27 18:38:00,
2013-08-27 14:43:00,83.5,65.6,29.41,West,270,5.8,5.8,55,0.00,,,0.00,VWS V14.01,2013-08-27 18:43:00,
2013-08-27 14:48:00,83.5,65.1,29.41,West,270,4.0,4.0,54,0.00,,,0.00,VWS V14.01,2013-08-27 18:48:00,
2013-08-27 14:53:00,84.0,66.1,29.41,West,270,4.3,4.3,55,0.00,,,0.00,VWS V14.01,2013-08-27 18:53:00,
2013-08-27 14:58:00,84.4,65.9,29.38,WSW,248,2.9,2.9,54,0.00,,,0.00,VWS V14.01,2013-08-27 18:58:00,
2013-08-27 15:03:00,84.7,66.3,29.38,NNE,22,6.3,6.3,54,0.00,,,0.00,VWS V14.01,2013-08-27 19:03:00,
2013-08-27 15:08:00,84.7,65.7,29.38,NNE,22,3.6,3.6,53,0.00,,,0.00,VWS V14.01,2013-08-27 19:08:00,
2013-08-27 15:13:00,84.4,64.8,29.38,NE,45,4.9,4.9,52,0.00,,,0.00,VWS V14.01,2013-08-27 19:13:00,
2013-08-27 15:18:00,84.4,64.8,29.38,NNE,22,2.0,2.0,52,0.00,,,0.00,VWS V14.01,2013-08-27 19:18:00,
2013-08-27 15:24:00,84.6,65.0,29.38,NNE,22,2.5,2.5,52,0.00,,,0.00,VWS V14.01,2013-08-27 19:24:00,
2013-08-27 15:29:00,84.6,63.9,29.35,NW,315,0.0,0.0,50,0.00,,,0.00,VWS V14.01,2013-08-27 19:29:00,
2013-08-27 15:34:00,84.7,64.6,29.35,West,270,2.7,2.7,51,0.00,,,0.00,VWS V14.01,2013-08-27 19:34:00,
2013-08-27 15:39:00,84.9,65.3,29.35,WNW,292,2.7,2.7,52,0.00,,,0.00,VWS V14.01,2013-08-27 19:39:00,
2013-08-27 15:44:00,85.5,64.7,29.38,West,270,0.0,0.0,50,0.00,,,0.00,VWS V14.01,2013-08-27 19:44:00,
2013-08-27 15:49:00,86.0,63.4,29.38,West,270,0.0,0.0,47,0.00,,,0.00,VWS V14.01,2013-08-27 19:49:00,
2013-08-27 15:54:00,85.8,65.6,29.38,NE,45,3.6,3.6,51,0.00,,,0.00,VWS V14.01,2013-08-27 19:54:00,
2013-08-27 15:59:00,86.2,65.9,29.38,SE,135,2.7,2.7,51,0.00,,,0.00,VWS V14.01,2013-08-27 19:59:00,
2013-08-27 16:04:00,86.2,65.4,29.38,NE,45,4.9,4.9,50,0.00,,,0.00,VWS V14.01,2013-08-27 20:04:00,
2013-08-27 16:09:00,86.2,64.2,29.38,NE,45,4.9,4.9,48,0.00,,,0.00,VWS V14.01,2013-08-27 20:09:00,
2013-08-27 16:14:00,86.2,64.2,29.35,NE,45,3.6,3.6,48,0.00,,,0.00,VWS V14.01,2013-08-27 20:14:00,
2013-08-27 16:19:00,86.4,65.0,29.35,NE,45,0.0,0.0,49,0.00,,,0.00,VWS V14.01,2013-08-27 20:19:00,
2013-08-27 16:24:00,86.4,64.4,29.35,NE,45,1.6,1.6,48,0.00,,,0.00,VWS V14.01,2013-08-27 20:24:00,
2013-08-27 16:29:00,86.2,63.6,29.38,NNW,338,2.2,2.2,47,0.00,,,0.00,VWS V14.01,2013-08-27 20:29:00,
2013-08-27 16:34:00,86.0,64.0,29.38,ESE,112,2.7,2.7,48,0.00,,,0.00,VWS V14.01,2013-08-27 20:34:00,
2013-08-27 16:39:00,86.0,64.0,29.38,ESE,112,4.7,4.7,48,0.00,,,0.00,VWS V14.01,2013-08-27 20:39:00,
2013-08-27 16:44:00,85.8,64.5,29.38,ESE,112,3.8,3.8,49,0.00,,,0.00,VWS V14.01,2013-08-27 20:44:00,
2013-08-27 16:49:00,85.5,64.1,29.38,NE,45,3.8,3.8,49,0.00,,,0.00,VWS V14.01,2013-08-27 20:49:00,
2013-08-27 16:54:00,85.3,64.0,29.38,NE,45,4.3,4.3,49,0.00,,,0.00,VWS V14.01,2013-08-27 20:54:00,
2013-08-27 16:59:00,85.1,64.4,29.38,NNE,22,2.7,2.7,50,0.00,,,0.00,VWS V14.01,2013-08-27 20:59:00,
2013-08-27 17:04:00,85.1,64.4,29.38,SE,135,4.0,4.0,50,0.00,,,0.00,VWS V14.01,2013-08-27 21:04:00,
2013-08-27 17:09:00,84.7,64.1,29.38,South,180,2.0,2.0,50,0.00,,,0.00,VWS V14.01,2013-08-27 21:09:00,
2013-08-27 17:14:00,84.7,64.6,29.38,East,90,2.0,2.0,51,0.00,,,0.00,VWS V14.01,2013-08-27 21:14:00,
2013-08-27 17:19:00,84.7,64.6,29.38,ESE,112,0.0,0.0,51,0.00,,,0.00,VWS V14.01,2013-08-27 21:19:00,
2013-08-27 17:25:00,85.1,65.0,29.38,NNE,22,0.9,0.9,51,0.00,,,0.00,VWS V14.01,2013-08-27 21:25:00,
2013-08-27 17:30:00,85.5,65.3,29.38,East,90,1.6,1.6,51,0.00,,,0.00,VWS V14.01,2013-08-27 21:30:00,
2013-08-27 17:35:00,85.8,65.6,29.38,East,90,3.1,3.1,51,0.00,,,0.00,VWS V14.01,2013-08-27 21:35:00,
2013-08-27 17:40:00,85.8,65.6,29.38,NE,45,3.1,3.1,51,0.00,,,0.00,VWS V14.01,2013-08-27 21:40:00,
2013-08-27 17:45:00,85.6,64.9,29.38,NNW,338,1.3,1.3,50,0.00,,,0.00,VWS V14.01,2013-08-27 21:45:00,
2013-08-27 17:50:00,85.1,64.4,29.38,NNE,22,4.0,4.0,50,0.00,,,0.00,VWS V14.01,2013-08-27 21:50:00,
2013-08-27 17:55:00,85.3,64.0,29.38,ENE,68,3.6,3.6,49,0.00,,,0.00,VWS V14.01,2013-08-27 21:55:00,
2013-08-27 18:00:00,85.5,64.7,29.35,East,90,2.0,2.0,50,0.00,,,0.00,VWS V14.01,2013-08-27 22:00:00,
2013-08-27 18:05:00,85.1,64.4,29.35,NNE,22,1.1,1.1,50,0.00,,,0.00,VWS V14.01,2013-08-27 22:05:00,
2013-08-27 18:10:00,84.9,64.8,29.35,East,90,1.1,1.1,51,0.00,,,0.00,VWS V14.01,2013-08-27 22:10:00,
2013-08-27 18:15:00,84.6,64.5,29.38,East,90,1.1,1.1,51,0.00,,,0.00,VWS V14.01,2013-08-27 22:15:00,
2013-08-27 18:20:00,84.2,64.7,29.38,East,90,0.0,0.0,52,0.00,,,0.00,VWS V14.01,2013-08-27 22:20:00,
2013-08-27 18:25:00,83.8,64.3,29.38,East,90,1.1,1.1,52,0.00,,,0.00,VWS V14.01,2013-08-27 22:25:00,
2013-08-27 18:30:00,83.5,64.6,29.38,SSE,158,0.0,0.0,53,0.00,,,0.00,VWS V14.01,2013-08-27 22:30:00,
2013-08-27 18:35:00,83.1,64.2,29.38,ESE,112,0.0,0.0,53,0.00,,,0.00,VWS V14.01,2013-08-27 22:35:00,
2013-08-27 18:40:00,82.8,64.4,29.38,ESE,112,0.0,0.0,54,0.00,,,0.00,VWS V14.01,2013-08-27 22:40:00,
2013-08-27 18:45:00,82.6,64.3,29.38,SE,135,0.0,0.0,54,0.00,,,0.00,VWS V14.01,2013-08-27 22:45:00,
2013-08-27 18:50:00,82.4,64.1,29.38,SE,135,2.2,2.2,54,0.00,,,0.00,VWS V14.01,2013-08-27 22:50:00,
2013-08-27 18:55:00,82.2,65.0,29.38,SE,135,0.0,0.0,56,0.00,,,0.00,VWS V14.01,2013-08-27 22:55:00,
2013-08-27 19:00:00,82.0,64.8,29.38,SSW,202,2.0,2.0,56,0.00,,,0.00,VWS V14.01,2013-08-27 23:00:00,
2013-08-27 19:05:00,82.0,64.8,29.38,South,180,0.0,0.0,56,0.00,,,0.00,VWS V14.01,2013-08-27 23:05:00,
2013-08-27 19:10:00,81.9,64.6,29.38,SE,135,0.9,0.9,56,0.00,,,0.00,VWS V14.01,2013-08-27 23:10:00,
2013-08-27 19:15:00,81.7,65.0,29.38,South,180,0.0,0.0,57,0.00,,,0.00,VWS V14.01,2013-08-27 23:15:00,
2013-08-27 19:20:00,81.3,65.1,29.38,SSE,158,0.0,0.0,58,0.00,,,0.00,VWS V14.01,2013-08-27 23:20:00,
2013-08-27 19:25:00,81.1,65.0,29.38,SW,225,2.5,2.5,58,0.00,,,0.00,VWS V14.01,2013-08-27 23:25:00,
2013-08-27 19:30:00,81.1,64.5,29.38,South,180,0.9,0.9,57,0.00,,,0.00,VWS V14.01,2013-08-27 23:30:00,
2013-08-27 19:35:00,80.8,64.6,29.38,South,180,0.0,0.0,58,0.00,,,0.00,VWS V14.01,2013-08-27 23:35:00,
2013-08-27 19:40:00,80.6,64.5,29.38,SSW,202,1.3,1.3,58,0.00,,,0.00,VWS V14.01,2013-08-27 23:40:00,
2013-08-27 19:45:00,80.4,64.8,29.38,SSW,202,1.3,1.3,59,0.00,,,0.00,VWS V14.01,2013-08-27 23:45:00,
2013-08-27 19:50:00,80.1,64.9,29.38,South,180,1.6,1.6,60,0.00,,,0.00,VWS V14.01,2013-08-27 23:50:00,
2013-08-27 19:55:00,79.9,64.8,29.38,WSW,248,1.1,1.1,60,0.00,,,0.00,VWS V14.01,2013-08-27 23:55:00,
2013-08-27 20:00:00,79.7,65.1,29.38,West,270,1.3,1.3,61,0.00,,,0.00,VWS V14.01,2013-08-28 00:00:00,
2013-08-27 20:05:00,79.5,64.9,29.38,SSW,202,2.0,2.0,61,0.00,,,0.00,VWS V14.01,2013-08-28 00:05:00,
2013-08-27 20:10:00,79.3,64.7,29.38,South,180,0.0,0.0,61,0.00,,,0.00,VWS V14.01,2013-08-28 00:10:00,
2013-08-27 20:15:00,79.2,65.0,29.38,SSW,202,1.1,1.1,62,0.00,,,0.00,VWS V14.01,2013-08-28 00:15:00,
2013-08-27 20:20:00,79.0,64.9,29.38,SSW,202,0.9,0.9,62,0.00,,,0.00,VWS V14.01,2013-08-28 00:20:00,
2013-08-27 20:25:00,78.6,65.0,29.38,SSW,202,0.0,0.0,63,0.00,,,0.00,VWS V14.01,2013-08-28 00:25:00,
2013-08-27 20:30:00,78.4,64.3,29.35,SSE,158,1.3,1.3,62,0.00,,,0.00,VWS V14.01,2013-08-28 00:30:00,
2013-08-27 20:35:00,78.4,64.3,29.35,SW,225,1.1,1.1,62,0.00,,,0.00,VWS V14.01,2013-08-28 00:35:00,
2013-08-27 20:40:00,78.3,64.6,29.35,SW,225,1.1,1.1,63,0.00,,,0.00,VWS V14.01,2013-08-28 00:40:00,
2013-08-27 20:45:00,77.9,64.8,29.38,WSW,248,0.0,0.0,64,0.00,,,0.00,VWS V14.01,2013-08-28 00:45:00,
2013-08-27 20:50:00,77.5,64.9,29.38,WSW,248,1.1,1.1,65,0.00,,,0.00,VWS V14.01,2013-08-28 00:50:00,
2013-08-27 20:55:00,77.2,64.9,29.38,SW,225,2.7,2.7,66,0.00,,,0.00,VWS V14.01,2013-08-28 00:55:00,
2013-08-27 21:00:00,77.0,65.2,29.35,SSW,202,2.0,2.0,67,0.00,,,0.00,VWS V14.01,2013-08-28 01:00:00,
2013-08-27 21:05:00,76.8,65.0,29.35,SSW,202,1.3,1.3,67,0.00,,,0.00,VWS V14.01,2013-08-28 01:05:00,
2013-08-27 21:10:00,76.6,64.9,29.35,SSW,202,0.0,0.0,67,0.00,,,0.00,VWS V14.01,2013-08-28 01:10:00,
2013-08-27 21:15:00,76.5,64.7,29.38,SSW,202,0.0,0.0,67,0.00,,,0.00,VWS V14.01,2013-08-28 01:15:00,
2013-08-27 21:20:00,76.5,65.1,29.38,SSW,202,0.0,0.0,68,0.00,,,0.00,VWS V14.01,2013-08-28 01:20:00,
2013-08-27 21:25:00,76.3,64.9,29.38,West,270,0.0,0.0,68,0.00,,,0.00,VWS V14.01,2013-08-28 01:25:00,
2013-08-27 21:30:00,76.1,64.8,29.38,West,270,0.0,0.0,68,0.00,,,0.00,VWS V14.01,2013-08-28 01:30:00,
2013-08-27 21:35:00,75.7,64.9,29.38,West,270,0.0,0.0,69,0.00,,,0.00,VWS V14.01,2013-08-28 01:35:00,
2013-08-27 21:40:00,75.7,64.9,29.38,West,270,0.0,0.0,69,0.00,,,0.00,VWS V14.01,2013-08-28 01:40:00,
2013-08-27 21:45:00,75.7,64.9,29.41,West,270,0.0,0.0,69,0.00,,,0.00,VWS V14.01,2013-08-28 01:45:00,
2013-08-27 21:50:00,75.7,64.9,29.41,West,270,0.0,0.0,69,0.00,,,0.00,VWS V14.01,2013-08-28 01:50:00,
2013-08-27 21:56:00,75.6,65.1,29.41,West,270,0.0,0.0,70,0.00,,,0.00,VWS V14.01,2013-08-28 01:56:00,
2013-08-27 22:01:00,75.6,65.1,29.41,West,270,1.6,1.6,70,0.00,,,0.00,VWS V14.01,2013-08-28 02:01:00,
2013-08-27 22:06:00,75.6,65.1,29.41,WSW,248,2.0,2.0,70,0.00,,,0.00,VWS V14.01,2013-08-28 02:06:00,
2013-08-27 22:11:00,75.2,66.0,29.41,WSW,248,2.0,2.0,73,0.00,,,0.00,VWS V14.01,2013-08-28 02:11:00,
2013-08-27 22:16:00,75.0,65.8,29.41,West,270,2.7,2.7,73,0.00,,,0.00,VWS V14.01,2013-08-28 02:16:00,
2013-08-27 22:21:00,75.2,65.6,29.41,North,0,0.0,0.0,72,0.00,,,0.00,VWS V14.01,2013-08-28 02:21:00,
2013-08-27 22:26:00,75.2,65.6,29.41,West,270,2.0,2.0,72,0.00,,,0.00,VWS V14.01,2013-08-28 02:26:00,
2013-08-27 22:31:00,75.2,66.0,29.41,West,270,2.7,2.7,73,0.00,,,0.00,VWS V14.01,2013-08-28 02:31:00,
2013-08-27 22:36:00,75.2,66.0,29.41,WNW,292,3.4,3.4,73,0.00,,,0.00,VWS V14.01,2013-08-28 02:36:00,
2013-08-27 22:41:00,75.4,66.1,29.41,SSW,202,7.2,7.2,73,0.00,,,0.00,VWS V14.01,2013-08-28 02:41:00,
2013-08-27 22:46:00,75.6,66.3,29.44,West,270,3.6,3.6,73,0.00,,,0.00,VWS V14.01,2013-08-28 02:46:00,
2013-08-27 22:51:00,75.7,66.9,29.44,West,270,2.7,2.7,74,0.00,,,0.00,VWS V14.01,2013-08-28 02:51:00,
2013-08-27 22:56:00,75.6,67.8,29.44,WSW,248,4.0,4.0,77,0.00,,,0.00,VWS V14.01,2013-08-28 02:56:00,
2013-08-27 23:01:00,75.2,67.9,29.44,West,270,0.0,0.0,78,0.00,,,0.00,VWS V14.01,2013-08-28 03:01:00,
2013-08-27 23:06:00,74.8,67.9,29.44,WSW,248,1.1,1.1,79,0.00,,,0.00,VWS V14.01,2013-08-28 03:06:00,
2013-08-27 23:11:00,74.7,67.7,29.44,SSW,202,1.1,1.1,79,0.00,,,0.00,VWS V14.01,2013-08-28 03:11:00,
2013-08-27 23:16:00,74.3,67.7,29.44,SSE,158,2.5,2.5,80,0.00,,,0.00,VWS V14.01,2013-08-28 03:16:00,
2013-08-27 23:22:00,74.3,68.1,29.44,South,180,2.0,2.0,81,0.00,,,0.00,VWS V14.01,2013-08-28 03:22:00,
2013-08-27 23:27:00,74.1,67.9,29.44,West,270,0.0,0.0,81,0.00,,,0.00,VWS V14.01,2013-08-28 03:27:00,
2013-08-27 23:32:00,74.1,68.3,29.44,SSW,202,0.0,0.0,82,0.00,,,0.00,VWS V14.01,2013-08-28 03:32:00,
2013-08-27 23:37:00,73.9,68.1,29.44,SSW,202,0.0,0.0,82,0.00,,,0.00,VWS V14.01,2013-08-28 03:37:00,
2013-08-27 23:42:00,73.8,67.9,29.44,SSE,158,0.0,0.0,82,0.00,,,0.00,VWS V14.01,2013-08-28 03:42:00,
2013-08-27 23:47:00,73.6,68.1,29.38,SSW,202,0.0,0.0,83,0.00,,,0.00,VWS V14.01,2013-08-28 03:47:00,
2013-08-27 23:52:00,73.4,67.9,29.38,East,90,0.0,0.0,83,0.00,,,0.00,VWS V14.01,2013-08-28 03:52:00,
2013-08-27 23:57:00,73.4,68.3,29.38,ESE,112,0.0,0.0,84,0.00,,,0.00,VWS V14.01,2013-08-28 03:57:00,